Showing default

KINEIS-2D, 62930

Orbit data source: Space-Track

KINEIS-2D, 62930 is a French payload satellite in SSO that was launched on Sat, 08 Feb 2025 UTC via an ELECTRON launch vehicle from the Rocket Lab Launch Complex (RLLC). Payload-class satellites include a variety of spacecraft equipped with specific instruments for various scientific and technological missions. These include communications satellites like Starlink; space stations such as the ISS; scientific satellites like the Hubble; Earth observation satellites from companies like Planet Labs, Umbra, and HawkEye 360; GPS; miniature CubeSats for education and research; and military/defense satellites.

Loading next visibility...
Identifier
62930, 2025-028C
Orbit
SSO
Last TLE update
7 hours ago
Origin
Manufacturer
KINEIS
Mission
Operational Commercial Communications
Bus & Motor
CUBESAT 16U, Unknown motor
Mass
28 kg wet, 28 kg dry
Launch date (UTC)
2025-02-08 (5 months ago)
Launch vehicle
ELECTRON
Launch site
Rocket Lab Launch Complex (RLLC)
Object type
Payload
Rocket body
Debris
Shape & HBR
Box + 2 Pan + 1 Ant, 1.6 m
Radar Cross Section
0.229 m², Medium (>0.1 m² and < 1m²)

Expand to show TLE details & history

TLE from 7 hours ago
0 KINEIS-2D
1 62930U 25028C   25183.87445131  .00001170  00000-0  18527-3 0  9994
2 62930  97.9766 237.4504 0002112 225.7138 134.3897 14.74088889 21224
Epoch: 2025-07-02T20:59Z
TLE epoch observation values (Epoch: 2025-07-02T20:59:12.593Z)
Latitude
-0.00005°
Longitude
1.49865°
Altitude
652.095 km
Speed
7.531 km/s
True Right ascension
15h 49m 48s
True Declination
0° 00' 00"
Sunlit
Object was in full shadow at epoch
Visualization orbit readout
Latitude
58.41514°
Longitude
-11.3245°
Altitude
659.351 km
Speed
7.533 km/s
Apparent Right ascension
05h 03m 50s
Apparent Declination
54° 35' 55"
Sunlit
Object is in daylight
Visualization observer readout
Local Sidereal Time
15:31:29
Azimuth
346.781° N
Elevation
6.564°
Doppler factor
1
Orbital elements
Apogee altitude
646.58 km
Perigee altitude
643.614 km
Semi-major axis
7,023.234 km
Eccentricity
0.00021
Inclination
97.9766°
RAAN
237.4504°
Arg. of periapsis
225.7138°
True anomaly
Unknown
Mean anomaly
134.3897°
Eccentric anomaly
Unknown
Mean motion
3.68755 °/min
Orbital period
97.63 mins
BSTAR
0.00018527
Loading maneuver chart data...
Loading SW <> Apogee altitude chart data...
Loading historical data...
Loading historical data...
Loading historical data...
Loading historical data...
Loading historical data...
Loading historical data...
Loading historical data...

KINEIS-2D Visibility forecast

Observer location: undefined°, undefined°

Span
Click to sort rows by Start time (UTC) header in descending order
Start Az.
Max El. time (UTC)
Max El. Az.
Max El.
End time (UTC)
End Az.
5 mins2025-07-03 15:30:15.153Z53.839° ENE2025-07-03 15:33:15.153Z102.814° ESE18.733°2025-07-03 15:35:15.153Z133.456° SE
6 mins2025-07-03 17:07:15.153Z339.973° N2025-07-03 17:09:15.153Z297.335° NW29.832°2025-07-03 17:13:15.153Z225.611° WSW
4 mins2025-07-04 02:29:15.153Z89.34° E2025-07-04 02:30:15.153Z73.606° E16.542°2025-07-04 02:33:15.153Z28.353° NE
|